This is the latest recevied weather packets stored in our database for station/object IZ1UQG-N2. If no packets are shown the sender has not sent any weather packets the latest 10 day(s).
| Time | Temp. | Humidity | Pressure | Rain* | Wind** | Luminosity | Snow |
|---|---|---|---|---|---|---|---|
| 1777631319 | 15.56° C | 38% | 1026.6 hPa | 0 mm | - | 513 W/m² | - |
| 1777631307 | 15.56° C | 39% | 1026.4 hPa | 0 mm | - | 492 W/m² | - |
| 1777631259 | 15.56° C | 39% | 1026.6 hPa | 0 mm | - | 508 W/m² | - |
| 1777631247 | 15.56° C | 39% | 1026.5 hPa | 0 mm | - | 492 W/m² | - |
| 1777631239 | 15.56° C | 39% | 1026.6 hPa | 0 mm | - | 508 W/m² | - |
| 1777631187 | 15.56° C | 39% | 1026.5 hPa | 0 mm | - | 512 W/m² | - |
| 1777631168 | 15.56° C | 39% | 1026.5 hPa | 0 mm | - | 512 W/m² | - |
| 1777631138 | 15.56° C | 40% | 1026.6 hPa | 0 mm | - | 490 W/m² | - |
| 1777631128 | 15.56° C | 38% | 1026.6 hPa | 0 mm | - | 512 W/m² | - |
| 1777631068 | 15.56° C | 38% | 1026.6 hPa | 0 mm | - | 513 W/m² | - |
| 1777631018 | 15.56° C | 39% | 1026.6 hPa | 0 mm | - | 482 W/m² | - |
| 1777631008 | 15.56° C | 39% | 1026.6 hPa | 0 mm | - | 508 W/m² | - |
| 1777630988 | 15.56° C | 39% | 1026.6 hPa | 0 mm | - | 508 W/m² | - |
| 1777630947 | 15.56° C | 39% | 1026.6 hPa | 0 mm | - | 492 W/m² | - |
| 1777630887 | 15.56° C | 40% | 1026.6 hPa | 0 mm | - | 490 W/m² | - |
| 1777630838 | 15.56° C | 40% | 1026.7 hPa | 0 mm | - | 483 W/m² | - |
| 1777630827 | 15.56° C | 39% | 1026.6 hPa | 0 mm | - | 489 W/m² | - |
| 1777630807 | 15.56° C | 39% | 1026.6 hPa | 0 mm | - | 489 W/m² | - |
| 1777630767 | 15.56° C | 39% | 1026.6 hPa | 0 mm | - | 482 W/m² | - |
| 1777630707 | 15.56° C | 38% | 1026.6 hPa | 0 mm | - | 482 W/m² | - |
| 1777630648 | 15.56° C | 39% | 1026.7 hPa | 0 mm | - | 483 W/m² | - |
| 1777630627 | 15.56° C | 39% | 1026.7 hPa | 0 mm | - | 483 W/m² | - |
| 1777630587 | 15.56° C | 40% | 1026.7 hPa | 0 mm | - | 483 W/m² | - |
| 1777630526 | 15.56° C | 39% | 1026.6 hPa | 0 mm | - | 478 W/m² | - |
| 1777630466 | 15.56° C | 40% | 1026.6 hPa | 0 mm | - | 475 W/m² | - |
* Rain latest hour (hover to see other rain measurements)
** Current wind speed in m/s (hover to see current wind gust speed)